Other Public Products
Issued by NWS Charleston, SC

Current Version | Previous Version | Text Only | Print | Product List | Glossary On
Versions: 1 2 3 4 5 6 7 8 9 10 11 12 13 14 15 16 17 18 19 20 21 22 23 24 25 26 27 28 29 30 31 32 33 34 35 36 37 38 39 40 41 42 43 44 45 46 47 48 49 50
000 FPUS82 KCHS 191912 OPUCHS TEST...KCHS/KSAV Gateway Observations...TEST National Weather Service Charleston SC 200 PM EST FRI JAN 19 2018 NOTE: "fair" indicates few or no clouds below 12,000 feet with no significant weather and/or obstructions to visibility. SCZ050-WAZ558-NCZ071-TXZ119-213-PAZ071-DCZ001-FLZ074-172-MI076- NYZ176-178-MAZ016-IL014-TNZ027-NJZ106-GAZ044-MD014-192000- ...Gateway Observations for Charleston International... CITY SKY/WX TMP DP RH WIND PRES REMARKS Chas Airport FAIR 60 17 18 W10 30.23F Seattle CLOUDY 45 37 73 S14 29.90R Charlotte FAIR 51 19 28 SW3 30.18F Dallas DFW PTSUNNY 55 37 50 S20 30.12F Dallas Love CLOUDY 52 40 63 S14G23 30.14F Philladelphia PTSUNNY 44 15 31 W15 30.04F Wash National FAIR 50 16 25 S14 30.05F Baltimore FAIR 50 14 23 W10 30.04F Miami PTSUNNY 71 53 52 E10 30.23F Detroit PTSUNNY 35 21 56 SW20 29.88F WCI 24 Newark PTSUNNY 38 14 37 W15G22 30.00F WCI 29 Laguardia PTSUNNY 36 14 40 W9 29.99F WCI 29 J F K PTSUNNY 35 16 45 W15 30.01F WCI 25 Boston Logan CLOUDY 33 19 56 W8 29.92F WCI 26 Ft. Lauderdale PTSUNNY 68 54 60 E13G18 30.22F Chicago O`Hare PTSUNNY 38 22 52 SW15 29.79F WCI 29 Chicago Midway PTSUNNY 38 23 55 S15 29.81F WCI 29 Houston Bush PTSUNNY 53 44 71 E12 30.22F Houston Hobby LGT RAIN 48 48 100 E12 30.20F FOG Nashville FAIR 45 16 31 SW9 30.24F Atlanta FAIR 51 7 16 VRB6 30.25F $$ GAZ044-118-TXZ119-213-NCZ071-DCZ001-MDZ014-506-PAZ021-071-NJZ106- NYZ176-178-MAZ106-OHZ011-021-055-MIZ076-KYZ091-ILZ014-INZ047- MNZ060-ONZ431-192000- ...Gateway Observations for Savannah International... CITY SKY/WX TMP DP RH WIND PRES REMARKS Savannah Arpt FAIR 60 13 15 W10 30.26F Atlanta FAIR 51 7 16 VRB6 30.25F Charlotte FAIR 51 19 28 SW3 30.18F Dallas DFW PTSUNNY 55 37 50 S20 30.12F Houston Bush PTSUNNY 53 44 71 E12 30.22F Wash National FAIR 50 16 25 S14 30.05F Wash Dulles FAIR 51 11 20 SW8 30.04F Baltimore FAIR 50 14 23 W10 30.04F Philadelphia PTSUNNY 44 15 31 W15 30.04F Newark PTSUNNY 38 14 37 W15G22 30.00F WCI 29 Laguardia PTSUNNY 36 14 40 W9 29.99F WCI 29 J F K PTSUNNY 35 16 45 W15 30.01F WCI 25 Boston CLOUDY 33 19 56 W8 29.92F WCI 26 Pittsburg FAIR 35 16 45 SW14 30.02F WCI 26 Akron FAIR 32 16 51 SW17 29.99F WCI 21 Cleveland FAIR 36 18 48 S16 29.97F WCI 26 Cincinnati FAIR 36 19 50 S14G21 30.08F WCI 27 Columbus FAIR 33 19 56 S9 30.08F WCI 25 Detroit PTSUNNY 35 21 56 SW20 29.88F WCI 24 Chicago O`Hare PTSUNNY 38 22 52 SW15 29.79F WCI 29 Minneapolis PTSUNNY 40 28 62 SW13 29.49F WCI 32 Indianapolis PTSUNNY 37 21 52 S15 30.01F WCI 28 Toronto Canada MOSUNNY 34 21 60 SW13 29.80F WCI 25 $$

USA.gov is the U.S. government's official web portal to all federal, state and local government web resources and services.